2023/02/24 00:00:00,82.9, 1.2
2023/02/24 00:10:00,83.1, 1.4
2023/02/24 00:20:00,83.1, 1.5
2023/02/24 00:30:00,83.1, 1.6
2023/02/24 00:40:00,83.0, 1.9
2023/02/24 00:50:00,83.0, 1.8
2023/02/24 01:00:00,83.0, 1.8
2023/02/24 01:10:00,82.9, 1.8
2023/02/24 01:20:00,82.9, 1.6
2023/02/24 01:30:00,83.0, 2.0
2023/02/24 01:40:00,83.0, 1.4
2023/02/24 01:50:00,83.1, 1.1
2023/02/24 02:00:00,83.0, 1.0
2023/02/24 02:10:00,83.2, 1.1
2023/02/24 02:20:00,83.1, 0.8
2023/02/24 02:30:00,82.9, 1.0
2023/02/24 02:40:00,83.0, 1.0
2023/02/24 02:50:00,82.9, 1.0
2023/02/24 03:00:00,82.8, 0.9
2023/02/24 03:10:00,82.7, 1.0
2023/02/24 03:20:00,82.7, 1.0
2023/02/24 03:30:00,82.6, 1.1
2023/02/24 03:40:00,82.5, 1.0
2023/02/24 03:50:00,82.5, 1.1
2023/02/24 04:00:00,82.5, 1.4
2023/02/24 04:10:00,82.5, 1.2
2023/02/24 04:20:00,82.5, 1.4
2023/02/24 04:30:00,82.3, 1.4
2023/02/24 04:40:00,82.3, 1.0
2023/02/24 04:50:00,82.2, 1.3
2023/02/24 05:00:00,82.2, 1.2
2023/02/24 05:10:00,82.1, 1.2
2023/02/24 05:20:00,82.1, 1.4
2023/02/24 05:30:00,82.0, 1.2
2023/02/24 05:40:00,82.0, 1.6
2023/02/24 05:50:00,82.0, 0.8
2023/02/24 06:00:00,82.0, 1.3
2023/02/24 06:10:00,82.0, 1.1
2023/02/24 06:20:00,81.9, 1.2
2023/02/24 06:30:00,81.9, 1.1
2023/02/24 06:40:00,81.9, 1.4
2023/02/24 06:50:00,81.8, 1.6
2023/02/24 07:00:00,81.8, 1.6
2023/02/24 07:10:00,81.8, 1.5
2023/02/24 07:20:00,81.8, 2.1
2023/02/24 07:30:00,81.8, 2.0
2023/02/24 07:40:00,81.8, 2.4
2023/02/24 07:50:00,81.8, 2.6
2023/02/24 08:00:00,81.8, 3.0
2023/02/24 08:10:00,81.8, 3.5
2023/02/24 08:20:00,81.8, 3.6
2023/02/24 08:30:00,81.9, 3.9
2023/02/24 08:40:00,81.9, 4.2
2023/02/24 08:50:00,81.8, 4.5
2023/02/24 09:00:00,81.8, 5.2
2023/02/24 09:10:00,81.9, 5.8
2023/02/24 09:20:00,81.9, 6.6
2023/02/24 09:30:00,81.8, 6.4
2023/02/24 09:40:00,81.9, 6.7
2023/02/24 09:50:00,81.9, 7.4
2023/02/24 10:00:00,81.7, 7.1
2023/02/24 10:10:00,81.7, 6.2
2023/02/24 10:20:00,81.6, 5.8
2023/02/24 10:30:00,81.6, 5.8
2023/02/24 10:40:00,81.6, 6.4
2023/02/24 10:50:00,81.5, 7.0
2023/02/24 11:00:00,81.6, 7.5
2023/02/24 11:10:00,81.6, 8.3
2023/02/24 11:20:00,81.6, 8.4
2023/02/24 11:30:00,81.3, 7.8
2023/02/24 11:40:00,81.3, 7.3
2023/02/24 11:50:00,81.1, 7.5
2023/02/24 12:00:00,81.2, 9.3
2023/02/24 12:10:00,81.2,11.2
2023/02/24 12:20:00,80.9,12.4
2023/02/24 12:30:00,80.9,11.3
2023/02/24 12:40:00,80.6, 9.0
2023/02/24 12:50:00,80.9,12.0
2023/02/24 13:00:00,80.6,13.8
2023/02/24 13:10:00,80.2,12.7
2023/02/24 13:20:00,80.1,11.1
2023/02/24 13:30:00,79.9,10.7
2023/02/24 13:40:00,79.9,11.1
2023/02/24 13:50:00,79.8, 9.6
2023/02/24 14:00:00,79.7, 8.7
2023/02/24 14:10:00,79.7, 7.4
2023/02/24 14:20:00,79.8, 7.1
2023/02/24 14:30:00,79.8, 7.0
2023/02/24 14:40:00,79.8, 7.0
2023/02/24 14:50:00,79.7, 6.6
2023/02/24 15:00:00,79.7, 7.0
2023/02/24 15:10:00,79.8, 8.1
2023/02/24 15:20:00,79.6,10.5
2023/02/24 15:30:00,79.5, 8.8
2023/02/24 15:40:00,79.6, 9.7
2023/02/24 15:50:00,79.5, 8.3
2023/02/24 16:00:00,79.3, 7.6
2023/02/24 16:10:00,79.4, 6.9
2023/02/24 16:20:00,79.2, 6.7
2023/02/24 16:30:00,79.1, 6.3
2023/02/24 16:40:00,78.9, 5.8
2023/02/24 16:50:00,78.8, 5.9
2023/02/24 17:00:00,79.0, 6.0
2023/02/24 17:10:00,79.1, 6.0
2023/02/24 17:20:00,78.9, 5.0
2023/02/24 17:30:00,78.9, 4.3
2023/02/24 17:40:00,78.8, 4.0
2023/02/24 17:50:00,78.8, 4.0
2023/02/24 18:00:00,78.8, 2.9
2023/02/24 18:10:00,78.8, 3.1
2023/02/24 18:20:00,78.7, 3.1
2023/02/24 18:30:00,78.6, 2.8
2023/02/24 18:40:00,78.6, 2.9
2023/02/24 18:50:00,78.6, 2.8
2023/02/24 19:00:00,78.7, 3.1
2023/02/24 19:10:00,78.7, 3.0
2023/02/24 19:20:00,78.8, 2.8
2023/02/24 19:30:00,78.6, 2.5
2023/02/24 19:40:00,78.5, 2.3
2023/02/24 19:50:00,78.4, 2.7
2023/02/24 20:00:00,78.4, 2.8
2023/02/24 20:10:00,78.5, 1.8
2023/02/24 20:20:00,78.5, 3.3
2023/02/24 20:30:00,78.5, 3.4
2023/02/24 20:40:00,78.6, 3.4
2023/02/24 20:50:00,78.5, 3.2
2023/02/24 21:00:00,78.6, 3.2
2023/02/24 21:10:00,78.7, 3.2
2023/02/24 21:20:00,78.6, 3.2
2023/02/24 21:30:00,78.5, 3.0
2023/02/24 21:40:00,78.5, 2.5
2023/02/24 21:50:00,78.5, 2.8
2023/02/24 22:00:00,78.5, 2.6
2023/02/24 22:10:00,78.5, 2.5
2023/02/24 22:20:00,78.5, 2.7
2023/02/24 22:30:00,78.5, 2.7
2023/02/24 22:40:00,78.5, 2.4
2023/02/24 22:50:00,78.5, 2.4
2023/02/24 23:00:00,78.5, 2.4
2023/02/24 23:10:00,78.7, 2.3
2023/02/24 23:20:00,78.5, 2.2
2023/02/24 23:30:00,78.4, 2.4
2023/02/24 23:40:00,78.5, 2.4
2023/02/24 23:50:00,78.5, 2.1
